Time,TemperatureF,DewpointF,PressureIn,WindDirection,WindDirectionDegrees,WindSpeedMPH,WindSpeedGustMPH,Humidity,HourlyPrecipIn,Conditions,Clouds,dailyrainin,SoftwareType,DateUTC
2013-07-25 00:05:00,69.2,56.5,30.07,NNW,338,0.0,0.0,64,0.00,,CLR,0.00,VWS V14.01,2013-07-25 05:05:00,
2013-07-25 00:10:00,69.1,56.8,30.07,NNW,338,0.0,0.0,65,0.00,,CLR,0.00,VWS V14.01,2013-07-25 05:10:00,
2013-07-25 00:15:00,68.9,56.7,30.07,NNW,338,0.0,0.0,65,0.00,,CLR,0.00,VWS V14.01,2013-07-25 05:15:00,
2013-07-25 00:20:00,68.7,56.5,30.06,NNW,338,0.0,0.0,65,0.00,,CLR,0.00,VWS V14.01,2013-07-25 05:20:00,
2013-07-25 00:25:00,68.5,56.3,30.07,NNW,338,0.0,0.0,65,0.00,,CLR,0.00,VWS V14.01,2013-07-25 05:25:00,
2013-07-25 00:30:00,68.3,56.1,30.06,NNW,338,0.0,0.0,65,0.00,,CLR,0.00,VWS V14.01,2013-07-25 05:30:00,
2013-07-25 00:36:00,68.2,56.4,30.06,NNW,338,0.0,0.0,66,0.00,,CLR,0.00,VWS V14.01,2013-07-25 05:36:00,
2013-07-25 00:45:00,68.0,56.2,30.06,NNW,338,0.0,0.0,66,0.00,,CLR,0.00,VWS V14.01,2013-07-25 05:45:00,
2013-07-25 00:50:00,67.8,56.5,30.06,NNW,338,0.0,0.0,67,0.00,,CLR,0.00,VWS V14.01,2013-07-25 05:50:00,
2013-07-25 00:55:00,67.6,56.3,30.06,NNE,22,0.0,0.0,67,0.00,,CLR,0.00,VWS V14.01,2013-07-25 05:55:00,
2013-07-25 01:05:00,67.4,56.5,30.07,NNE,22,0.0,0.0,68,0.00,,CLR,0.00,VWS V14.01,2013-07-25 06:05:00,
2013-07-25 01:10:00,67.3,56.4,30.07,NNE,22,0.0,0.0,68,0.00,,CLR,0.00,VWS V14.01,2013-07-25 06:10:00,
2013-07-25 01:15:00,67.1,56.6,30.07,NNE,22,0.0,0.0,69,0.00,,CLR,0.00,VWS V14.01,2013-07-25 06:15:00,
2013-07-25 01:20:00,67.1,56.6,30.07,NNE,22,0.0,0.0,69,0.00,,CLR,0.00,VWS V14.01,2013-07-25 06:20:00,
2013-07-25 01:25:00,66.9,56.4,30.07,NNE,22,0.0,0.0,69,0.00,,CLR,0.00,VWS V14.01,2013-07-25 06:25:00,
2013-07-25 01:30:00,66.7,56.6,30.07,NNE,22,0.0,0.0,70,0.00,,CLR,0.00,VWS V14.01,2013-07-25 06:30:00,
2013-07-25 01:35:00,66.7,56.6,30.07,NNE,22,0.0,0.0,70,0.00,,CLR,0.00,VWS V14.01,2013-07-25 06:35:00,
2013-07-25 01:40:00,66.5,56.4,30.07,NNE,22,0.0,0.0,70,0.00,,CLR,0.00,VWS V14.01,2013-07-25 06:40:00,
2013-07-25 01:45:00,66.5,56.4,30.07,NNE,22,0.0,0.0,70,0.00,,CLR,0.00,VWS V14.01,2013-07-25 06:45:00,
2013-07-25 01:50:00,66.4,56.3,30.07,NNE,22,0.0,0.0,70,0.00,,CLR,0.00,VWS V14.01,2013-07-25 06:50:00,
2013-07-25 01:55:00,66.4,56.7,30.07,NNE,22,0.0,0.0,71,0.00,,CLR,0.00,VWS V14.01,2013-07-25 06:55:00,
2013-07-25 02:05:00,66.2,56.5,30.07,NNE,22,0.0,0.0,71,0.00,,CLR,0.00,VWS V14.01,2013-07-25 07:05:00,
2013-07-25 02:10:00,66.2,56.9,30.07,NNE,22,0.0,0.0,72,0.00,,CLR,0.00,VWS V14.01,2013-07-25 07:10:00,
2013-07-25 02:15:00,66.0,56.7,30.07,NNE,22,0.0,0.0,72,0.00,,CLR,0.00,VWS V14.01,2013-07-25 07:15:00,
2013-07-25 02:20:00,66.0,56.7,30.07,NNE,22,0.0,0.0,72,0.00,,CLR,0.00,VWS V14.01,2013-07-25 07:20:00,
2013-07-25 02:25:00,66.0,56.7,30.07,NNE,22,0.0,0.0,72,0.00,,CLR,0.00,VWS V14.01,2013-07-25 07:25:00,
2013-07-25 02:30:00,65.8,56.9,30.07,NNE,22,0.0,0.0,73,0.00,,CLR,0.00,VWS V14.01,2013-07-25 07:30:00,
2013-07-25 02:35:00,65.6,56.7,30.07,NNE,22,0.0,0.0,73,0.00,,CLR,0.00,VWS V14.01,2013-07-25 07:35:00,
2013-07-25 02:40:00,65.6,56.7,30.07,NNE,22,0.0,0.0,73,0.00,,CLR,0.00,VWS V14.01,2013-07-25 07:40:00,
2013-07-25 02:46:00,65.5,57.0,30.07,NNE,22,0.0,0.0,74,0.00,,CLR,0.00,VWS V14.01,2013-07-25 07:46:00,
2013-07-25 02:55:00,65.3,56.8,30.07,NNE,22,0.0,0.0,74,0.00,,CLR,0.00,VWS V14.01,2013-07-25 07:55:00,
2013-07-25 03:05:00,65.1,56.6,30.07,NNE,22,0.0,0.0,74,0.00,,CLR,0.00,VWS V14.01,2013-07-25 08:05:00,
2013-07-25 03:10:00,65.1,56.6,30.08,NNE,22,0.0,0.0,74,0.00,,CLR,0.00,VWS V14.01,2013-07-25 08:10:00,
2013-07-25 03:15:00,64.9,56.4,30.08,NNE,22,0.0,0.0,74,0.00,,CLR,0.00,VWS V14.01,2013-07-25 08:15:00,
2013-07-25 03:20:00,64.9,56.8,30.08,North,0,0.0,0.0,75,0.00,,CLR,0.00,VWS V14.01,2013-07-25 08:20:00,
2013-07-25 03:25:00,64.9,56.8,30.08,North,0,0.0,0.0,75,0.00,,CLR,0.00,VWS V14.01,2013-07-25 08:25:00,
2013-07-25 03:30:00,64.9,56.8,30.08,North,0,0.0,0.0,75,0.00,,CLR,0.00,VWS V14.01,2013-07-25 08:30:00,
2013-07-25 03:35:00,64.9,56.8,30.08,North,0,0.0,0.0,75,0.00,,CLR,0.00,VWS V14.01,2013-07-25 08:35:00,
2013-07-25 03:40:00,64.7,56.6,30.08,North,0,0.0,0.0,75,0.00,,CLR,0.00,VWS V14.01,2013-07-25 08:40:00,
2013-07-25 03:45:00,64.7,57.0,30.08,North,0,0.0,0.0,76,0.00,,CLR,0.00,VWS V14.01,2013-07-25 08:45:00,
2013-07-25 03:50:00,64.6,56.9,30.08,North,0,0.0,0.0,76,0.00,,CLR,0.00,VWS V14.01,2013-07-25 08:50:00,
2013-07-25 03:55:00,64.6,56.9,30.08,North,0,0.0,0.0,76,0.00,,CLR,0.00,VWS V14.01,2013-07-25 08:55:00,
2013-07-25 04:05:00,64.6,56.9,30.08,North,0,0.0,0.0,76,0.00,,CLR,0.00,VWS V14.01,2013-07-25 09:05:00,
2013-07-25 04:10:00,64.4,57.0,30.08,North,0,0.0,0.0,77,0.00,,CLR,0.00,VWS V14.01,2013-07-25 09:10:00,
2013-07-25 04:15:00,64.4,57.0,30.08,North,0,0.0,0.0,77,0.00,,CLR,0.00,VWS V14.01,2013-07-25 09:15:00,
2013-07-25 04:20:00,64.4,57.0,30.08,North,0,0.0,0.0,77,0.00,,CLR,0.00,VWS V14.01,2013-07-25 09:20:00,
2013-07-25 04:25:00,64.4,57.0,30.08,North,0,0.0,0.0,77,0.00,,CLR,0.00,VWS V14.01,2013-07-25 09:25:00,
2013-07-25 04:30:00,64.2,56.8,30.08,NNW,338,0.0,0.0,77,0.00,,CLR,0.00,VWS V14.01,2013-07-25 09:30:00,
2013-07-25 04:35:00,64.2,56.8,30.08,NNW,338,0.0,0.0,77,0.00,,CLR,0.00,VWS V14.01,2013-07-25 09:35:00,
2013-07-25 04:45:00,64.2,56.8,30.08,North,0,0.0,0.0,77,0.00,,CLR,0.00,VWS V14.01,2013-07-25 09:45:00,
2013-07-25 04:50:00,64.2,56.8,30.07,North,0,0.0,0.0,77,0.00,,CLR,0.00,VWS V14.01,2013-07-25 09:50:00,
2013-07-25 04:55:00,64.2,57.2,30.07,North,0,0.0,0.0,78,0.00,,CLR,0.00,VWS V14.01,2013-07-25 09:55:00,
2013-07-25 05:05:00,64.2,57.2,30.07,North,0,0.0,0.0,78,0.00,,CLR,0.00,VWS V14.01,2013-07-25 10:05:00,
2013-07-25 05:10:00,64.2,56.8,30.07,North,0,0.0,0.0,77,0.00,,CLR,0.00,VWS V14.01,2013-07-25 10:10:00,
2013-07-25 05:15:00,64.0,57.0,30.07,North,0,0.0,0.0,78,0.00,,CLR,0.00,VWS V14.01,2013-07-25 10:15:00,
2013-07-25 05:20:00,64.0,57.0,30.07,North,0,0.0,0.0,78,0.00,,CLR,0.00,VWS V14.01,2013-07-25 10:20:00,
2013-07-25 05:25:00,63.8,56.8,30.07,North,0,0.0,0.0,78,0.00,,CLR,0.00,VWS V14.01,2013-07-25 10:25:00,
2013-07-25 05:30:00,63.8,56.8,30.07,North,0,0.0,0.0,78,0.00,,CLR,0.00,VWS V14.01,2013-07-25 10:30:00,
2013-07-25 05:35:00,63.8,56.8,30.07,North,0,0.0,0.0,78,0.00,,CLR,0.00,VWS V14.01,2013-07-25 10:35:00,
2013-07-25 05:40:00,63.8,56.8,30.06,North,0,0.0,0.0,78,0.00,,CLR,0.00,VWS V14.01,2013-07-25 10:40:00,
2013-07-25 05:45:00,63.7,56.7,30.06,North,0,0.0,0.0,78,0.00,,CLR,0.00,VWS V14.01,2013-07-25 10:45:00,
2013-07-25 05:50:00,63.5,56.5,30.06,North,0,0.0,0.0,78,0.00,,CLR,0.00,VWS V14.01,2013-07-25 10:50:00,
2013-07-25 05:55:00,63.5,56.5,30.06,North,0,0.0,0.0,78,0.00,,CLR,0.00,VWS V14.01,2013-07-25 10:55:00,
2013-07-25 06:05:00,63.3,56.7,30.06,North,0,0.0,0.0,79,0.00,,CLR,0.00,VWS V14.01,2013-07-25 11:05:00,
2013-07-25 06:10:00,63.3,56.7,30.07,North,0,0.0,0.0,79,0.00,,CLR,0.00,VWS V14.01,2013-07-25 11:10:00,
2013-07-25 06:15:00,63.3,56.7,30.07,North,0,0.0,0.0,79,0.00,,CLR,0.00,VWS V14.01,2013-07-25 11:15:00,
2013-07-25 06:20:00,63.3,56.7,30.06,North,0,0.0,0.0,79,0.00,,CLR,0.00,VWS V14.01,2013-07-25 11:20:00,
2013-07-25 06:25:00,63.3,56.7,30.06,North,0,0.0,0.0,79,0.00,,CLR,0.00,VWS V14.01,2013-07-25 11:25:00,
2013-07-25 06:30:00,63.3,56.7,30.07,North,0,0.0,0.0,79,0.00,,CLR,0.00,VWS V14.01,2013-07-25 11:30:00,
2013-07-25 06:35:00,63.3,57.0,30.07,North,0,0.0,0.0,80,0.00,,CLR,0.00,VWS V14.01,2013-07-25 11:35:00,
2013-07-25 06:40:00,63.1,56.8,30.07,North,0,0.0,0.0,80,0.00,,CLR,0.00,VWS V14.01,2013-07-25 11:40:00,
2013-07-25 06:45:00,63.3,57.0,30.07,North,0,0.0,0.0,80,0.00,,CLR,0.00,VWS V14.01,2013-07-25 11:45:00,
2013-07-25 06:50:00,63.3,57.0,30.07,North,0,0.0,0.0,80,0.00,,CLR,0.00,VWS V14.01,2013-07-25 11:50:00,
2013-07-25 06:55:00,63.3,57.0,30.07,SE,135,0.0,0.0,80,0.00,,CLR,0.00,VWS V14.01,2013-07-25 11:55:00,
2013-07-25 07:05:00,63.7,57.4,30.07,NNW,338,0.0,0.2,80,0.00,,CLR,0.00,VWS V14.01,2013-07-25 12:05:00,
2013-07-25 07:10:00,63.8,57.5,30.07,NE,45,0.0,0.0,80,0.00,,CLR,0.00,VWS V14.01,2013-07-25 12:10:00,
2013-07-25 07:15:00,64.0,57.7,30.07,NE,45,0.0,0.0,80,0.00,,CLR,0.00,VWS V14.01,2013-07-25 12:15:00,
2013-07-25 07:20:00,64.2,57.9,30.08,NE,45,0.0,0.0,80,0.00,,CLR,0.00,VWS V14.01,2013-07-25 12:20:00,
2013-07-25 07:25:00,64.6,58.0,30.08,East,90,0.4,1.1,79,0.00,,CLR,0.00,VWS V14.01,2013-07-25 12:25:00,
2013-07-25 07:30:00,64.9,57.9,30.08,ESE,112,0.0,0.4,78,0.00,,CLR,0.00,VWS V14.01,2013-07-25 12:30:00,
2013-07-25 07:35:00,65.3,58.3,30.08,ESE,112,0.0,0.4,78,0.00,,CLR,0.00,VWS V14.01,2013-07-25 12:35:00,
2013-07-25 07:40:00,65.8,58.4,30.08,ESE,112,1.1,1.1,77,0.00,,CLR,0.00,VWS V14.01,2013-07-25 12:40:00,
2013-07-25 07:45:00,66.2,58.4,30.08,SE,135,0.0,1.8,76,0.00,,CLR,0.00,VWS V14.01,2013-07-25 12:45:00,
2013-07-25 07:50:00,66.5,58.7,30.09,SE,135,0.0,0.0,76,0.00,,CLR,0.00,VWS V14.01,2013-07-25 12:50:00,
2013-07-25 07:55:00,66.9,59.1,30.09,SSE,158,0.0,0.0,76,0.00,,CLR,0.00,VWS V14.01,2013-07-25 12:55:00,
2013-07-25 08:05:00,67.4,58.8,30.09,South,180,0.0,1.1,74,0.00,,CLR,0.00,VWS V14.01,2013-07-25 13:05:00,
2013-07-25 08:10:00,67.8,59.2,30.09,ESE,112,0.7,1.1,74,0.00,,CLR,0.00,VWS V14.01,2013-07-25 13:10:00,
2013-07-25 08:15:00,68.2,59.6,30.10,SSE,158,0.0,0.7,74,0.00,,CLR,0.00,VWS V14.01,2013-07-25 13:15:00,
2013-07-25 08:20:00,68.5,59.5,30.10,SE,135,1.1,1.8,73,0.00,,CLR,0.00,VWS V14.01,2013-07-25 13:20:00,
2013-07-25 08:25:00,68.7,59.7,30.10,SE,135,1.1,1.1,73,0.00,,CLR,0.00,VWS V14.01,2013-07-25 13:25:00,
2013-07-25 08:30:00,69.1,59.7,30.10,SE,135,0.4,1.8,72,0.00,,CLR,0.00,VWS V14.01,2013-07-25 13:30:00,
2013-07-25 08:35:00,69.4,59.6,30.10,SW,225,0.4,1.1,71,0.00,,CLR,0.00,VWS V14.01,2013-07-25 13:35:00,
2013-07-25 08:40:00,69.8,60.4,30.10,South,180,0.0,0.4,72,0.00,,CLR,0.00,VWS V14.01,2013-07-25 13:40:00,
2013-07-25 08:45:00,70.1,60.3,30.10,NNE,22,0.7,0.9,71,0.00,,CLR,0.00,VWS V14.01,2013-07-25 13:45:00,
2013-07-25 08:50:00,70.5,60.7,30.10,NNE,22,0.0,0.7,71,0.00,,CLR,0.00,VWS V14.01,2013-07-25 13:50:00,
2013-07-25 08:55:00,70.9,61.0,30.10,SSE,158,0.7,1.6,71,0.00,,CLR,0.00,VWS V14.01,2013-07-25 13:55:00,
2013-07-25 09:05:00,71.6,60.9,30.10,SE,135,0.7,2.5,69,0.00,,CLR,0.00,VWS V14.01,2013-07-25 14:05:00,
2013-07-25 09:10:00,71.8,61.1,30.11,SSW,202,0.0,0.7,69,0.00,,CLR,0.00,VWS V14.01,2013-07-25 14:10:00,
2013-07-25 09:15:00,71.8,60.7,30.11,SW,225,0.0,0.0,68,0.00,,BKN095,0.00,VWS V14.01,2013-07-25 14:15:00,
2013-07-25 09:20:00,72.1,61.0,30.11,SE,135,1.8,2.5,68,0.00,,BKN095,0.00,VWS V14.01,2013-07-25 14:20:00,
2013-07-25 09:25:00,72.7,61.1,30.11,SW,225,0.0,1.8,67,0.00,,BKN095,0.00,VWS V14.01,2013-07-25 14:25:00,
2013-07-25 09:30:00,73.2,61.6,30.11,SE,135,1.3,1.8,67,0.00,,BKN095,0.00,VWS V14.01,2013-07-25 14:30:00,
2013-07-25 09:35:00,73.6,61.5,30.11,SSW,202,0.4,1.3,66,0.00,,BKN095,0.00,VWS V14.01,2013-07-25 14:35:00,
2013-07-25 09:40:00,73.7,61.7,30.11,SSW,202,0.0,1.1,66,0.00,,BKN095,0.00,VWS V14.01,2013-07-25 14:40:00,
2013-07-25 09:45:00,74.1,61.6,30.10,SW,225,0.4,1.8,65,0.00,,BKN095,0.00,VWS V14.01,2013-07-25 14:45:00,
2013-07-25 09:50:00,74.3,61.8,30.10,SW,225,0.4,0.9,65,0.00,,BKN095,0.00,VWS V14.01,2013-07-25 14:50:00,
2013-07-25 09:55:00,74.6,62.1,30.10,SE,135,0.4,2.9,65,0.00,,BKN095,0.00,VWS V14.01,2013-07-25 14:55:00,
2013-07-25 10:05:00,75.4,62.4,30.10,West,270,0.4,1.1,64,0.00,,BKN095,0.00,VWS V14.01,2013-07-25 15:05:00,
2013-07-25 10:10:00,75.7,62.2,30.10,South,180,1.1,2.5,63,0.00,,BKN095,0.00,VWS V14.01,2013-07-25 15:10:00,
2013-07-25 10:15:00,75.9,62.4,30.10,SE,135,4.0,4.0,63,0.00,,SCT095,0.00,VWS V14.01,2013-07-25 15:15:00,
2013-07-25 10:20:00,76.1,62.6,30.10,ENE,68,3.6,4.0,63,0.00,,SCT095,0.00,VWS V14.01,2013-07-25 15:20:00,
2013-07-25 10:25:00,76.4,62.4,30.10,SE,135,2.0,3.6,62,0.00,,SCT095,0.00,VWS V14.01,2013-07-25 15:25:00,
2013-07-25 10:30:00,76.6,62.2,30.10,ESE,112,0.4,2.0,61,0.00,,SCT095,0.00,VWS V14.01,2013-07-25 15:30:00,
2013-07-25 10:35:00,77.0,62.1,30.10,South,180,0.4,1.8,60,0.00,,SCT095,0.00,VWS V14.01,2013-07-25 15:35:00,
2013-07-25 10:40:00,77.2,62.2,30.10,SW,225,1.1,3.1,60,0.00,,SCT095,0.00,VWS V14.01,2013-07-25 15:40:00,
2013-07-25 10:45:00,77.3,61.9,30.11,South,180,2.2,2.2,59,0.00,,SCT095,0.00,VWS V14.01,2013-07-25 15:45:00,
2013-07-25 10:50:00,77.5,62.1,30.11,SE,135,1.1,3.1,59,0.00,,SCT095,0.00,VWS V14.01,2013-07-25 15:50:00,
2013-07-25 10:55:00,77.7,62.2,30.10,SW,225,0.7,1.1,59,0.00,,SCT095,0.00,VWS V14.01,2013-07-25 15:55:00,
2013-07-25 11:05:00,78.2,62.7,30.10,SSW,202,0.0,1.8,59,0.00,,SCT095,0.00,VWS V14.01,2013-07-25 16:05:00,
2013-07-25 11:10:00,78.4,62.4,30.10,ESE,112,3.8,3.8,58,0.00,,SCT095,0.00,VWS V14.01,2013-07-25 16:10:00,
2013-07-25 11:15:00,78.4,61.4,30.10,ESE,112,1.8,3.8,56,0.00,,FEW095,0.00,VWS V14.01,2013-07-25 16:15:00,
2013-07-25 11:20:00,78.6,62.1,30.10,SE,135,2.5,4.7,57,0.00,,FEW095,0.00,VWS V14.01,2013-07-25 16:20:00,
2013-07-25 11:25:00,78.8,62.3,30.10,ESE,112,0.2,2.9,57,0.00,,FEW095,0.00,VWS V14.01,2013-07-25 16:25:00,
2013-07-25 11:30:00,79.0,62.5,30.10,NW,315,1.6,2.0,57,0.00,,FEW095,0.00,VWS V14.01,2013-07-25 16:30:00,
2013-07-25 11:35:00,79.1,62.6,30.10,SSE,158,1.8,1.8,57,0.00,,FEW095,0.00,VWS V14.01,2013-07-25 16:35:00,
2013-07-25 11:40:00,79.5,62.5,30.10,WSW,248,0.0,4.0,56,0.00,,FEW095,0.00,VWS V14.01,2013-07-25 16:40:00,
2013-07-25 11:45:00,79.9,63.3,30.10,WNW,292,0.4,1.1,57,0.00,,FEW095,0.00,VWS V14.01,2013-07-25 16:45:00,
2013-07-25 11:50:00,80.2,63.1,30.09,WSW,248,0.7,3.1,56,0.00,,FEW095,0.00,VWS V14.01,2013-07-25 16:50:00,
2013-07-25 11:55:00,80.4,62.8,30.09,SE,135,1.1,2.9,55,0.00,,FEW095,0.00,VWS V14.01,2013-07-25 16:55:00,
2013-07-25 12:05:00,80.6,62.4,30.08,ESE,112,1.6,2.2,54,0.00,,FEW095,0.00,VWS V14.01,2013-07-25 17:05:00,
2013-07-25 12:10:00,80.8,62.6,30.08,SW,225,0.9,3.4,54,0.00,,FEW095,0.00,VWS V14.01,2013-07-25 17:10:00,
2013-07-25 12:15:00,80.9,62.7,30.08,NNE,22,1.1,1.3,54,0.00,,CLR,0.00,VWS V14.01,2013-07-25 17:15:00,
2013-07-25 12:20:00,81.1,62.9,30.08,WNW,292,0.4,2.0,54,0.00,,CLR,0.00,VWS V14.01,2013-07-25 17:20:00,
2013-07-25 12:25:00,81.3,62.5,30.08,SE,135,1.1,1.1,53,0.00,,CLR,0.00,VWS V14.01,2013-07-25 17:25:00,
2013-07-25 12:30:00,81.5,62.7,30.07,ESE,112,1.6,2.5,53,0.00,,CLR,0.00,VWS V14.01,2013-07-25 17:30:00,
2013-07-25 12:35:00,81.7,63.5,30.08,North,0,0.0,1.6,54,0.00,,CLR,0.00,VWS V14.01,2013-07-25 17:35:00,
2013-07-25 12:40:00,81.8,63.5,30.08,West,270,1.1,1.8,54,0.00,,CLR,0.00,VWS V14.01,2013-07-25 17:40:00,
2013-07-25 12:45:00,82.0,63.7,30.08,West,270,0.2,2.2,54,0.00,,CLR,0.00,VWS V14.01,2013-07-25 17:45:00,
2013-07-25 12:50:00,82.4,64.1,30.08,SSW,202,0.0,4.5,54,0.00,,CLR,0.00,VWS V14.01,2013-07-25 17:50:00,
2013-07-25 12:55:00,82.6,63.8,30.08,WNW,292,0.4,1.6,53,0.00,,CLR,0.00,VWS V14.01,2013-07-25 17:55:00,
2013-07-25 13:05:00,82.7,63.3,30.08,SW,225,0.7,1.1,52,0.00,,CLR,0.00,VWS V14.01,2013-07-25 18:05:00,
2013-07-25 13:10:00,82.6,63.2,30.08,SE,135,0.0,1.3,52,0.00,,CLR,0.00,VWS V14.01,2013-07-25 18:10:00,
2013-07-25 13:15:00,82.2,62.8,30.08,West,270,0.4,3.1,52,0.00,,CLR,0.00,VWS V14.01,2013-07-25 18:15:00,
2013-07-25 13:20:00,82.2,62.8,30.08,NW,315,0.0,0.4,52,0.00,,CLR,0.00,VWS V14.01,2013-07-25 18:20:00,
2013-07-25 13:25:00,82.2,63.4,30.08,NNW,338,0.0,1.6,53,0.00,,CLR,0.00,VWS V14.01,2013-07-25 18:25:00,
2013-07-25 13:30:00,82.2,62.8,30.08,WSW,248,0.4,1.3,52,0.00,,CLR,0.00,VWS V14.01,2013-07-25 18:30:00,
2013-07-25 13:35:00,82.2,62.8,30.08,North,0,0.4,1.1,52,0.00,,CLR,0.00,VWS V14.01,2013-07-25 18:35:00,
2013-07-25 13:40:00,82.0,62.1,30.08,NNE,22,0.2,1.8,51,0.00,,CLR,0.00,VWS V14.01,2013-07-25 18:40:00,
2013-07-25 13:45:00,81.8,63.0,30.08,ENE,68,0.2,0.2,53,0.00,,CLR,0.00,VWS V14.01,2013-07-25 18:45:00,
2013-07-25 13:50:00,81.8,63.0,30.07,SE,135,0.7,0.9,53,0.00,,CLR,0.00,VWS V14.01,2013-07-25 18:50:00,
2013-07-25 13:55:00,81.8,61.9,30.07,SE,135,0.9,0.9,51,0.00,,CLR,0.00,VWS V14.01,2013-07-25 18:55:00,
2013-07-25 14:05:00,81.8,61.9,30.08,ENE,68,0.0,0.0,51,0.00,,CLR,0.00,VWS V14.01,2013-07-25 19:05:00,
2013-07-25 14:10:00,81.7,62.9,30.07,East,90,0.0,0.0,53,0.00,,CLR,0.00,VWS V14.01,2013-07-25 19:10:00,
2013-07-25 14:15:00,81.5,62.2,30.07,NNE,22,0.0,0.0,52,0.00,,CLR,0.00,VWS V14.01,2013-07-25 19:15:00,
2013-07-25 14:20:00,81.5,62.7,30.07,NNE,22,0.0,0.0,53,0.00,,CLR,0.00,VWS V14.01,2013-07-25 19:20:00,
2013-07-25 14:25:00,81.3,62.5,30.06,NNW,338,0.0,0.0,53,0.00,,CLR,0.00,VWS V14.01,2013-07-25 19:25:00,
2013-07-25 14:30:00,81.3,62.5,30.06,NE,45,0.0,0.0,53,0.00,,CLR,0.00,VWS V14.01,2013-07-25 19:30:00,
2013-07-25 14:35:00,81.5,62.7,30.06,SE,135,0.7,0.9,53,0.00,,CLR,0.00,VWS V14.01,2013-07-25 19:35:00,
2013-07-25 14:40:00,81.5,62.7,30.06,West,270,0.0,0.7,53,0.00,,CLR,0.00,VWS V14.01,2013-07-25 19:40:00,
2013-07-25 14:45:00,81.8,63.5,30.06,NNE,22,0.0,0.2,54,0.00,,CLR,0.00,VWS V14.01,2013-07-25 19:45:00,
2013-07-25 14:50:00,81.8,63.5,30.06,North,0,0.0,0.0,54,0.00,,CLR,0.00,VWS V14.01,2013-07-25 19:50:00,
2013-07-25 14:55:00,81.8,63.5,30.06,North,0,0.0,0.4,54,0.00,,CLR,0.00,VWS V14.01,2013-07-25 19:55:00,
2013-07-25 15:05:00,81.5,63.3,30.05,North,0,0.0,1.8,54,0.00,,CLR,0.00,VWS V14.01,2013-07-25 20:05:00,
2013-07-25 15:10:00,81.5,62.7,30.05,NNW,338,0.0,0.0,53,0.00,,CLR,0.00,VWS V14.01,2013-07-25 20:10:00,
2013-07-25 15:15:00,81.3,62.5,30.06,SE,135,0.4,0.4,53,0.00,,BKN100,0.00,VWS V14.01,2013-07-25 20:15:00,
2013-07-25 15:20:00,81.1,62.4,30.06,SW,225,0.0,0.4,53,0.00,,BKN100,0.00,VWS V14.01,2013-07-25 20:20:00,
2013-07-25 15:25:00,81.1,62.4,30.06,SE,135,0.7,1.8,53,0.00,,BKN100,0.00,VWS V14.01,2013-07-25 20:25:00,
2013-07-25 15:30:00,80.9,62.2,30.06,SSW,202,0.0,0.7,53,0.00,,BKN100,0.00,VWS V14.01,2013-07-25 20:30:00,
2013-07-25 15:35:00,80.8,61.5,30.06,NNW,338,0.4,0.4,52,0.00,,BKN100,0.00,VWS V14.01,2013-07-25 20:35:00,
2013-07-25 15:40:00,80.8,62.1,30.06,SSW,202,0.0,0.9,53,0.00,,BKN100,0.00,VWS V14.01,2013-07-25 20:40:00,
2013-07-25 15:45:00,80.6,61.9,30.07,WSW,248,0.0,0.4,53,0.00,,BKN100,0.00,VWS V14.01,2013-07-25 20:45:00,
2013-07-25 15:50:00,80.6,61.9,30.07,East,90,0.0,0.2,53,0.00,,BKN100,0.00,VWS V14.01,2013-07-25 20:50:00,
2013-07-25 15:55:00,80.4,62.2,30.07,NE,45,0.0,0.0,54,0.00,,BKN100,0.00,VWS V14.01,2013-07-25 20:55:00,
2013-07-25 16:05:00,80.2,62.1,30.08,NNE,22,0.0,0.0,54,0.00,,BKN100,0.00,VWS V14.01,2013-07-25 21:05:00,
2013-07-25 16:10:00,80.0,62.4,30.08,NNE,22,0.0,0.0,55,0.00,,BKN100,0.00,VWS V14.01,2013-07-25 21:10:00,
2013-07-25 16:15:00,80.0,62.4,30.08,NNE,22,0.0,0.0,55,0.00,,FEW100,0.00,VWS V14.01,2013-07-25 21:15:00,
2013-07-25 16:20:00,80.0,62.9,30.08,NNE,22,0.0,0.0,56,0.00,,FEW100,0.00,VWS V14.01,2013-07-25 21:20:00,
2013-07-25 16:25:00,79.9,63.3,30.08,NNE,22,0.0,0.0,57,0.00,,FEW100,0.00,VWS V14.01,2013-07-25 21:25:00,
2013-07-25 16:30:00,79.7,63.1,30.08,NNE,22,0.0,0.0,57,0.00,,FEW100,0.00,VWS V14.01,2013-07-25 21:30:00,
2013-07-25 16:35:00,79.5,63.4,30.09,North,0,0.0,0.0,58,0.00,,FEW100,0.00,VWS V14.01,2013-07-25 21:35:00,
2013-07-25 16:40:00,79.0,63.9,30.09,NW,315,0.4,0.4,60,0.00,,FEW100,0.00,VWS V14.01,2013-07-25 21:40:00,
2013-07-25 16:45:00,78.4,63.8,30.09,NNW,338,0.4,0.9,61,0.00,,FEW100,0.00,VWS V14.01,2013-07-25 21:45:00,
2013-07-25 16:50:00,77.7,64.1,30.09,North,0,0.4,1.8,63,0.00,,FEW100,0.00,VWS V14.01,2013-07-25 21:50:00,
2013-07-25 16:55:00,77.0,63.9,30.10,WNW,292,0.4,1.1,64,0.00,,FEW100,0.00,VWS V14.01,2013-07-25 21:55:00,
2013-07-25 17:05:00,75.7,63.5,30.10,NW,315,0.0,0.4,66,0.00,,FEW100,0.00,VWS V14.01,2013-07-25 22:05:00,
2013-07-25 17:10:00,75.4,63.7,30.10,North,0,0.4,0.4,67,0.00,,FEW100,0.00,VWS V14.01,2013-07-25 22:10:00,
2013-07-25 17:15:00,74.6,63.3,30.10,ESE,112,1.3,1.3,68,0.00,,-RA,0.00,VWS V14.01,2013-07-25 22:15:00,
2013-07-25 17:20:00,73.9,63.1,30.10,SW,225,1.6,1.6,69,0.01,,-RA,0.01,VWS V14.01,2013-07-25 22:20:00,
2013-07-25 17:25:00,73.4,63.0,30.10,NNW,338,0.4,2.9,70,0.01,,-RA,0.01,VWS V14.01,2013-07-25 22:25:00,
2013-07-25 17:30:00,73.2,63.2,30.10,ENE,68,0.9,1.1,71,0.01,,-RA,0.01,VWS V14.01,2013-07-25 22:30:00,
2013-07-25 17:35:00,72.8,62.9,30.10,ESE,112,0.0,1.1,71,0.01,,-RA,0.01,VWS V14.01,2013-07-25 22:35:00,
2013-07-25 17:40:00,72.7,63.2,30.09,NW,315,1.1,1.6,72,0.02,,-RA,0.02,VWS V14.01,2013-07-25 22:40:00,
2013-07-25 17:45:00,72.3,63.6,30.08,NE,45,0.0,1.1,74,0.02,,-RA,0.02,VWS V14.01,2013-07-25 22:45:00,
2013-07-25 17:50:00,72.1,63.8,30.08,NE,45,1.8,1.8,75,0.02,,-RA,0.02,VWS V14.01,2013-07-25 22:50:00,
2013-07-25 17:55:00,71.8,63.8,30.07,WNW,292,0.4,1.8,76,0.02,,-RA,0.02,VWS V14.01,2013-07-25 22:55:00,
2013-07-25 18:05:00,71.4,63.8,30.07,NE,45,0.4,1.8,77,0.02,,-RA,0.02,VWS V14.01,2013-07-25 23:05:00,
2013-07-25 18:10:00,71.4,63.8,30.06,NNW,338,0.0,0.9,77,0.02,,-RA,0.02,VWS V14.01,2013-07-25 23:10:00,
2013-07-25 18:15:00,71.4,64.2,30.06,SSE,158,0.0,1.3,78,0.02,,-RA,0.02,VWS V14.01,2013-07-25 23:15:00,
2013-07-25 18:20:00,71.4,64.2,30.06,NE,45,0.0,0.4,78,0.02,,-RA,0.02,VWS V14.01,2013-07-25 23:20:00,
2013-07-25 18:25:00,71.4,64.2,30.06,ESE,112,0.4,2.0,78,0.01,,-RA,0.02,VWS V14.01,2013-07-25 23:25:00,
2013-07-25 18:30:00,71.2,64.4,30.05,SE,135,0.9,2.0,79,0.01,,-RA,0.02,VWS V14.01,2013-07-25 23:30:00,
2013-07-25 18:35:00,71.2,64.7,30.05,SE,135,0.0,1.3,80,0.01,,-RA,0.02,VWS V14.01,2013-07-25 23:35:00,
2013-07-25 18:40:00,71.2,64.7,30.05,North,0,0.0,0.9,80,0.01,,-RA,0.02,VWS V14.01,2013-07-25 23:40:00,
2013-07-25 18:45:00,71.2,64.7,30.05,NNW,338,0.2,0.4,80,0.00,,-RA,0.02,VWS V14.01,2013-07-25 23:45:00,
2013-07-25 18:50:00,71.2,64.7,30.06,South,180,0.0,0.2,80,0.00,,-RA,0.02,VWS V14.01,2013-07-25 23:50:00,
2013-07-25 18:55:00,71.2,64.7,30.05,SSE,158,0.4,0.4,80,0.00,,-RA,0.02,VWS V14.01,2013-07-25 23:55:00,
2013-07-25 19:05:00,71.0,64.5,30.05,SE,135,0.0,0.0,80,0.00,,-RA,0.02,VWS V14.01,2013-07-26 00:05:00,
2013-07-25 19:10:00,71.0,64.9,30.05,SE,135,0.0,0.0,81,0.00,,-RA,0.02,VWS V14.01,2013-07-26 00:10:00,
2013-07-25 19:15:00,70.9,64.8,30.05,SE,135,0.0,0.4,81,0.00,,-RA,0.02,VWS V14.01,2013-07-26 00:15:00,
2013-07-25 19:20:00,70.9,64.8,30.05,SE,135,0.0,0.0,81,0.00,,-RA,0.02,VWS V14.01,2013-07-26 00:20:00,
2013-07-25 19:25:00,70.7,64.6,30.05,SE,135,0.0,0.0,81,0.00,,-RA,0.02,VWS V14.01,2013-07-26 00:25:00,
2013-07-25 19:30:00,70.7,64.6,30.05,SE,135,0.0,0.0,81,0.01,,-RA,0.03,VWS V14.01,2013-07-26 00:30:00,
2013-07-25 19:35:00,70.7,64.9,30.05,SE,135,0.0,0.0,82,0.01,,-RA,0.03,VWS V14.01,2013-07-26 00:35:00,
2013-07-25 19:40:00,70.7,64.9,30.04,East,90,0.0,0.0,82,0.01,,-RA,0.03,VWS V14.01,2013-07-26 00:40:00,
2013-07-25 19:45:00,70.5,64.8,30.04,East,90,0.0,0.0,82,0.01,,-RA,0.03,VWS V14.01,2013-07-26 00:45:00,
2013-07-25 19:50:00,70.5,65.1,30.03,SE,135,0.4,0.4,83,0.01,,-RA,0.03,VWS V14.01,2013-07-26 00:50:00,
2013-07-25 19:55:00,70.5,65.1,30.03,SE,135,0.0,0.7,83,0.01,,-RA,0.03,VWS V14.01,2013-07-26 00:55:00,
2013-07-25 20:05:00,70.5,65.1,30.03,ESE,112,0.0,0.9,83,0.01,,-RA,0.03,VWS V14.01,2013-07-26 01:05:00,
2013-07-25 20:10:00,70.5,65.1,30.03,ESE,112,0.0,0.0,83,0.01,,-RA,0.03,VWS V14.01,2013-07-26 01:10:00,
2013-07-25 20:15:00,70.5,65.1,30.02,ESE,112,0.0,0.0,83,0.01,,BKN120,0.03,VWS V14.01,2013-07-26 01:15:00,
2013-07-25 20:20:00,70.5,65.1,30.03,SE,135,0.0,0.0,83,0.01,,BKN120,0.03,VWS V14.01,2013-07-26 01:20:00,
2013-07-25 20:25:00,70.5,65.1,30.03,East,90,0.0,0.0,83,0.01,,BKN120,0.03,VWS V14.01,2013-07-26 01:25:00,
2013-07-25 20:30:00,70.3,64.9,30.02,NW,315,0.0,0.0,83,0.01,,BKN120,0.03,VWS V14.01,2013-07-26 01:30:00,
2013-07-25 20:38:00,70.3,64.9,30.03,NNW,338,0.0,0.0,83,0.00,,BKN120,0.03,VWS V14.01,2013-07-26 01:38:00,
2013-07-25 20:45:00,70.1,64.4,30.02,NNW,338,0.0,0.0,82,0.00,,BKN120,0.03,VWS V14.01,2013-07-26 01:45:00,
2013-07-25 20:50:00,70.1,64.7,30.02,SE,135,0.0,0.4,83,0.00,,BKN120,0.03,VWS V14.01,2013-07-26 01:50:00,
2013-07-25 20:55:00,70.1,64.7,30.02,SE,135,0.0,0.0,83,0.00,,BKN120,0.03,VWS V14.01,2013-07-26 01:55:00,
2013-07-25 21:05:00,70.0,64.6,30.02,SE,135,0.0,0.0,83,0.00,,BKN120,0.03,VWS V14.01,2013-07-26 02:05:00,
2013-07-25 21:10:00,70.0,64.6,30.03,SE,135,0.0,0.0,83,0.00,,BKN120,0.03,VWS V14.01,2013-07-26 02:10:00,
2013-07-25 21:15:00,70.0,64.6,30.03,SE,135,0.0,0.0,83,0.00,,OVC100,0.03,VWS V14.01,2013-07-26 02:15:00,
2013-07-25 21:20:00,70.0,64.6,30.03,SE,135,0.0,0.0,83,0.00,,OVC100,0.03,VWS V14.01,2013-07-26 02:20:00,
2013-07-25 21:25:00,70.0,64.6,30.03,SE,135,0.0,0.4,83,0.00,,OVC100,0.03,VWS V14.01,2013-07-26 02:25:00,
2013-07-25 21:30:00,70.0,64.6,30.04,SE,135,0.0,0.0,83,0.00,,OVC100,0.03,VWS V14.01,2013-07-26 02:30:00,
2013-07-25 21:35:00,70.0,64.9,30.04,SE,135,0.0,0.0,84,0.00,,OVC100,0.03,VWS V14.01,2013-07-26 02:35:00,
2013-07-25 21:40:00,70.0,64.9,30.04,SE,135,0.0,0.0,84,0.00,,OVC100,0.03,VWS V14.01,2013-07-26 02:40:00,
2013-07-25 21:45:00,70.0,64.9,30.04,SE,135,0.0,0.0,84,0.00,,OVC100,0.03,VWS V14.01,2013-07-26 02:45:00,
2013-07-25 21:50:00,70.0,64.9,30.05,ENE,68,0.0,0.0,84,0.00,,OVC100,0.03,VWS V14.01,2013-07-26 02:50:00,
2013-07-25 21:55:00,70.0,64.9,30.05,ENE,68,0.0,0.0,84,0.00,,OVC100,0.03,VWS V14.01,2013-07-26 02:55:00,
2013-07-25 22:05:00,69.8,64.8,30.05,ENE,68,0.0,0.0,84,0.00,,OVC100,0.03,VWS V14.01,2013-07-26 03:05:00,
2013-07-25 22:10:00,69.8,64.8,30.05,ENE,68,0.0,0.0,84,0.00,,-RA,0.03,VWS V14.01,2013-07-26 03:10:00,
2013-07-25 22:15:00,69.6,64.6,30.05,NE,45,0.0,0.0,84,0.00,,-RA,0.03,VWS V14.01,2013-07-26 03:15:00,
2013-07-25 22:20:00,69.6,64.6,30.05,NNW,338,0.0,0.4,84,0.00,,-RA,0.03,VWS V14.01,2013-07-26 03:20:00,
2013-07-25 22:25:00,69.6,64.6,30.05,ESE,112,0.0,0.4,84,0.00,,-RA,0.03,VWS V14.01,2013-07-26 03:25:00,
2013-07-25 22:30:00,69.6,64.6,30.05,ESE,112,0.0,0.0,84,0.00,,-RA,0.03,VWS V14.01,2013-07-26 03:30:00,
2013-07-25 22:35:00,69.6,64.9,30.05,East,90,0.0,0.0,85,0.00,,-RA,0.03,VWS V14.01,2013-07-26 03:35:00,
2013-07-25 22:40:00,69.6,64.9,30.05,ESE,112,0.9,0.9,85,0.00,,-RA,0.03,VWS V14.01,2013-07-26 03:40:00,
2013-07-25 22:45:00,69.6,64.9,30.04,ESE,112,0.0,0.9,85,0.00,,-RA,0.03,VWS V14.01,2013-07-26 03:45:00,
2013-07-25 22:50:00,69.4,64.7,30.04,North,0,0.0,0.0,85,0.00,,-RA,0.03,VWS V14.01,2013-07-26 03:50:00,
2013-07-25 22:55:00,69.4,65.0,30.05,North,0,0.0,0.0,86,0.00,,-RA,0.03,VWS V14.01,2013-07-26 03:55:00,
2013-07-25 23:05:00,69.4,65.0,30.05,North,0,0.0,0.0,86,0.01,,-RA,0.04,VWS V14.01,2013-07-26 04:05:00,
2013-07-25 23:08:00,69.4,65.0,30.05,North,0,0.0,0.0,86,0.01,,-RA,0.04,VWS V14.01,2013-07-26 04:08:00,
2013-07-25 23:15:00,69.2,64.8,30.04,SE,135,0.4,1.1,86,0.01,,-RA,0.04,VWS V14.01,2013-07-26 04:15:00,
2013-07-25 23:18:00,69.2,64.8,30.04,SW,225,0.4,1.1,86,0.01,,-RA,0.04,VWS V14.01,2013-07-26 04:18:00,
2013-07-25 23:25:00,69.2,64.8,30.04,NW,315,0.4,0.4,86,0.01,,-RA,0.04,VWS V14.01,2013-07-26 04:25:00,
2013-07-25 23:30:00,69.1,64.7,30.04,NW,315,0.0,0.4,86,0.01,,-RA,0.04,VWS V14.01,2013-07-26 04:30:00,
2013-07-25 23:35:00,69.1,64.7,30.04,NW,315,0.0,0.0,86,0.01,,-RA,0.04,VWS V14.01,2013-07-26 04:35:00,
2013-07-25 23:40:00,69.1,64.7,30.03,NW,315,0.0,0.2,86,0.01,,-RA,0.04,VWS V14.01,2013-07-26 04:40:00,
2013-07-25 23:45:00,69.1,64.7,30.03,NW,315,0.0,0.0,86,0.01,,-RA,0.04,VWS V14.01,2013-07-26 04:45:00,
2013-07-25 23:50:00,69.1,64.7,30.03,NW,315,0.0,0.0,86,0.01,,-RA,0.04,VWS V14.01,2013-07-26 04:50:00,
2013-07-25 23:55:00,69.1,64.7,30.03,North,0,0.7,0.7,86,0.02,,-RA,0.05,VWS V14.01,2013-07-26 04:55:00,